• In Belarus
  • List of Countries
  • For 7 days
  • Water Temperature
  • Satellite Maps
  • Weather Map
  • Weather Widgets
  • user-avatar
    Login

    Hourly Weather Rostock

    Today, 20 January, Sunday

    Time Temperature Precipitation Wind Pressure Humidity
    00:00 -3°C° 0 mm 2 mps 763 mmHg 90%
    01:00 -3°C° 0 mm 2 mps 763 mmHg 92%
    02:00 -1°C° 0 mm 1 mps 763 mmHg 91%
    03:00 -1°C° 0 mm 1 mps 763 mmHg 91%
    04:00 -1°C° 0 mm 1 mps 762 mmHg 90%
    05:00 -1°C° 0 mm 1 mps 762 mmHg 90%
    06:00 -1°C° 0 mm 1 mps 762 mmHg 90%
    07:00 -1°C° 0 mm 1 mps 762 mmHg 89%
    08:00 -1°C° 0 mm 1 mps 763 mmHg 86%
    09:00 0°C° 0 mm 1 mps 763 mmHg 83%
    10:00 0°C° 0 mm 1 mps 763 mmHg 79%
    11:00 +1°C° 0 mm 1 mps 763 mmHg 75%
    12:00 +2°C° 0 mm 1 mps 763 mmHg 71%
    13:00 +2°C° 0 mm 1 mps 763 mmHg 67%
    14:00 +2°C° 0 mm 1 mps 764 mmHg 70%
    15:00 +1°C° 0 mm 1 mps 764 mmHg 74%
    16:00 +1°C° 0 mm 1 mps 764 mmHg 77%
    17:00 -2°C° 0 mm 2 mps 764 mmHg 80%
    18:00 -2°C° 0 mm 2 mps 764 mmHg 82%
    19:00 -2°C° 0 mm 2 mps 764 mmHg 85%
    20:00 -2°C° 0 mm 2 mps 765 mmHg 85%
    21:00 -2°C° 0 mm 2 mps 765 mmHg 85%
    22:00 -2°C° 0 mm 2 mps 765 mmHg 85%
    23:00 -4°C° 0 mm 3 mps 765 mmHg 85%

    Tomorrow, 21 January, Monday

    Time Temperature Precipitation Wind Pressure Humidity
    00:00 -4°C° 0 mm 3 mps 766 mmHg 85%
    01:00 -4°C° 0 mm 3 mps 766 mmHg 84%
    02:00 -4°C° 0 mm 3 mps 766 mmHg 83%
    03:00 -4°C° 0 mm 3 mps 765 mmHg 82%
    04:00 -4°C° 0 mm 3 mps 765 mmHg 81%
    05:00 -4°C° 0 mm 4 mps 765 mmHg 81%
    06:00 -4°C° 0 mm 4 mps 765 mmHg 80%
    07:00 -5°C° 0 mm 4 mps 765 mmHg 80%
    08:00 -5°C° 0 mm 5 mps 765 mmHg 75%
    09:00 -5°C° 0 mm 5 mps 765 mmHg 71%
    10:00 -4°C° 0 mm 6 mps 765 mmHg 66%
    11:00 -3°C° 0 mm 6 mps 764 mmHg 61%
    12:00 -3°C° 0 mm 6 mps 764 mmHg 56%
    13:00 -2°C° 0 mm 7 mps 764 mmHg 50%
    14:00 -2°C° 0.1 mm 6 mps 763 mmHg 55%
    15:00 -2°C° 0.1 mm 6 mps 763 mmHg 60%
    16:00 -3°C° 0.1 mm 6 mps 762 mmHg 65%
    17:00 -2°C° 0 mm 5 mps 762 mmHg 70%
    18:00 -4°C° 0 mm 5 mps 762 mmHg 74%
    19:00 -4°C° 0 mm 5 mps 762 mmHg 79%
    20:00 -3°C° 0 mm 4 mps 762 mmHg 81%
    21:00 -4°C° 0 mm 4 mps 761 mmHg 83%
    22:00 -4°C° 0 mm 4 mps 761 mmHg 85%
    23:00 -4°C° 0 mm 4 mps 761 mmHg 85%

    Day after tomorrow, 22 January, Tuesday

    Time Temperature Precipitation Wind Pressure Humidity
    00:00 -4°C° 0 mm 4 mps 760 mmHg 86%
    01:00 -4°C° 0 mm 4 mps 760 mmHg 86%
    02:00 -4°C° 0 mm 4 mps 759 mmHg 85%
    03:00 -4°C° 0 mm 3 mps 759 mmHg 84%
    04:00 -4°C° 0 mm 3 mps 758 mmHg 83%
    05:00 -4°C° 0 mm 3 mps 758 mmHg 80%
    06:00 -4°C° 0 mm 3 mps 758 mmHg 77%
    07:00 -4°C° 0 mm 3 mps 757 mmHg 74%
    08:00 -4°C° 0 mm 4 mps 757 mmHg 68%
    09:00 -4°C° 0 mm 4 mps 757 mmHg 62%
    10:00 -3°C° 0 mm 4 mps 756 mmHg 56%
    11:00 -4°C° 0 mm 5 mps 756 mmHg 52%
    12:00 -2°C° 0 mm 5 mps 755 mmHg 49%
    13:00 -1°C° 0 mm 5 mps 755 mmHg 46%
    14:00 -2°C° 0 mm 5 mps 754 mmHg 49%
    15:00 -2°C° 0 mm 5 mps 754 mmHg 53%
    16:00 -4°C° 0 mm 5 mps 753 mmHg 56%
    17:00 -4°C° 0 mm 5 mps 753 mmHg 60%
    18:00 -5°C° 0 mm 5 mps 753 mmHg 63%
    19:00 -5°C° 0 mm 5 mps 752 mmHg 66%
    20:00 -5°C° 0 mm 5 mps 752 mmHg 67%
    21:00 -5°C° 0 mm 5 mps 752 mmHg 68%
    22:00 -5°C° 0 mm 5 mps 752 mmHg 68%
    23:00 -6°C° 0 mm 5 mps 752 mmHg 70%

    23 January, Wednesday

    Time Temperature Precipitation Wind Pressure Humidity
    00:00 -6°C° 0 mm 5 mps 752 mmHg 71%
    01:00 -5°C° 0 mm 4 mps 752 mmHg 72%
    02:00 -5°C° 0 mm 4 mps 752 mmHg 71%
    03:00 -5°C° 0 mm 4 mps 752 mmHg 70%
    04:00 -5°C° 0 mm 4 mps 752 mmHg 69%
    05:00 -7°C° 0 mm 4 mps 752 mmHg 69%
    06:00 -7°C° 0 mm 4 mps 752 mmHg 70%
    07:00 -7°C° 0 mm 4 mps 752 mmHg 71%
    08:00 -7°C° 0 mm 4 mps 752 mmHg 69%
    09:00 -5°C° 0 mm 4 mps 753 mmHg 67%
    10:00 -5°C° 0 mm 4 mps 753 mmHg 65%
    11:00 -4°C° 0 mm 4 mps 753 mmHg 62%
    12:00 -2°C° 0 mm 3 mps 753 mmHg 59%
    13:00 -2°C° 0 mm 3 mps 753 mmHg 57%
    14:00 -2°C° 0 mm 3 mps 753 mmHg 60%
    15:00 -2°C° 0 mm 3 mps 753 mmHg 62%
    16:00 -4°C° 0 mm 3 mps 753 mmHg 65%
    17:00 -4°C° 0 mm 3 mps 754 mmHg 66%
    18:00 -4°C° 0 mm 3 mps 754 mmHg 67%
    19:00 -4°C° 0 mm 3 mps 754 mmHg 68%
    20:00 -3°C° 0 mm 2 mps 754 mmHg 71%
    21:00 -3°C° 0 mm 2 mps 755 mmHg 74%
    22:00 -3°C° 0 mm 2 mps 755 mmHg 77%
    23:00 -1°C° 0 mm 1 mps 755 mmHg 79%

    24 January, Thursday

    Time Temperature Precipitation Wind Pressure Humidity
    00:00 -1°C° 0 mm 1 mps 755 mmHg 81%
    01:00 -1°C° 0 mm 1 mps 755 mmHg 83%
    02:00 -2°C° 0 mm 0 mps 755 mmHg 84%
    03:00 -2°C° 0 mm 0 mps 755 mmHg 85%
    04:00 -3°C° 0 mm 0 mps 755 mmHg 86%
    05:00 -3°C° 0 mm 0 mps 756 mmHg 86%
    06:00 -3°C° 0 mm 0 mps 756 mmHg 86%
    07:00 -3°C° 0 mm 0 mps 756 mmHg 87%
    08:00 -2°C° 0 mm 0 mps 756 mmHg 85%
    09:00 -2°C° 0 mm 0 mps 757 mmHg 83%
    10:00 -2°C° 0 mm 0 mps 757 mmHg 81%
    11:00 0°C° 0 mm 1 mps 757 mmHg 77%
    12:00 +1°C° 0 mm 1 mps 757 mmHg 74%
    13:00 +1°C° 0 mm 1 mps 757 mmHg 70%
    14:00 +1°C° 0 mm 1 mps 757 mmHg 73%
    15:00 0°C° 0 mm 1 mps 758 mmHg 75%
    16:00 0°C° 0 mm 1 mps 758 mmHg 78%
    17:00 0°C° 0 mm 1 mps 758 mmHg 80%
    18:00 0°C° 0 mm 1 mps 759 mmHg 81%
    19:00 0°C° 0 mm 1 mps 759 mmHg 83%
    20:00 0°C° 0 mm 1 mps 760 mmHg 84%
    21:00 0°C° 0 mm 1 mps 760 mmHg 85%
    22:00 -1°C° 0 mm 1 mps 760 mmHg 86%
    23:00 0°C° 0 mm 1 mps 761 mmHg 84%

    25 January, Friday

    Time Temperature Precipitation Wind Pressure Humidity
    00:00 0°C° 0 mm 1 mps 761 mmHg 82%
    01:00 +1°C° 0 mm 1 mps 761 mmHg 80%
    02:00 +1°C° 0 mm 1 mps 762 mmHg 78%
    03:00 -1°C° 0 mm 2 mps 762 mmHg 77%
    04:00 -1°C° 0 mm 2 mps 762 mmHg 75%
    05:00 -1°C° 0 mm 2 mps 762 mmHg 74%
    06:00 -1°C° 0 mm 2 mps 763 mmHg 73%
    07:00 -1°C° 0 mm 2 mps 763 mmHg 72%
    08:00 -1°C° 0 mm 2 mps 764 mmHg 73%
    09:00 -1°C° 0 mm 2 mps 764 mmHg 73%
    10:00 +1°C° 0 mm 1 mps 765 mmHg 73%
    11:00 +1°C° 0 mm 2 mps 765 mmHg 71%
    12:00 +1°C° 0 mm 2 mps 765 mmHg 69%
    13:00 +2°C° 0 mm 2 mps 765 mmHg 67%
    14:00 +1°C° 0 mm 2 mps 765 mmHg 71%
    15:00 -1°C° 0 mm 2 mps 765 mmHg 75%
    16:00 -1°C° 0 mm 2 mps 765 mmHg 78%
    17:00 -2°C° 0 mm 2 mps 766 mmHg 81%
    18:00 0°C° 0 mm 1 mps 766 mmHg 84%
    19:00 -1°C° 0 mm 1 mps 766 mmHg 87%
    20:00 -3°C° 0 mm 2 mps 766 mmHg 89%
    21:00 -3°C° 0 mm 2 mps 766 mmHg 90%
    22:00 -4°C° 0 mm 3 mps 766 mmHg 92%
    23:00 -4°C° 0 mm 3 mps 766 mmHg 89%
    Show more